Location: Brede
(50.9167°N, 0.6000°E)
Time: 15:52:23
(UTC+00:00)

Cosmos 1271 Rocket - Pass Details

Date: 08 August 2020
Orbit: 499 x 545 km, 81.2° (Epoch: 22 September)

Event Time Altitude Azimuth Distance (km) Brightness Sun altitude
Rises 00:24:35 0° 339° (NNW) 2,611 7.3 -22.9°
Reaches altitude 10° 00:26:53 10° 328° (NNW) 1,725 6.0 -22.8°
Enters shadow 00:29:39 28° 283° (WNW) 973 4.1 -22.8°
